Concordia, KS

10:19 AM CST on November 21, 2019 (GMT -0600)
Blosser Municipal

Weather History for KCNK - September, 2019

Change the Weather History Date:

Saturday, September 21, 2019

  Actual Average Record
Temperature  
Mean Temperature 79 °F 66 °F  
Max Temperature 92 °F 78 °F 103 °F (2005)
Min Temperature 66 °F 54 °F 33 °F (1983)
Degree Days  
Heating Degree Days 0 3  
Month to date heating degree days 0 31  
Since 1 July heating degree days 0 34  
Cooling Degree Days 14 4  
Month to date cooling degree days 299 135  
Year to date cooling degree days 1576 1301  
Growing Degree Days 28 (Base 50)    
Moisture  
Dew Point 68 °F    
Average Humidity 69    
Maximum Humidity 93    
Minimum Humidity 44    
Precipitation  
Precipitation 1.43 in 0.10 in 2.30 in (2009)
Month to date precipitation 1.45 2.07  
Year to date precipitation 30.29 23.17  
Snow  
Snow 0.00 in 0.00 in 0.00 in ()
Month to date snowfall 0.0 0.0  
Year to date snowfall 32.3 13.7  
Since 1 July snowfall 0.0 0.0  
Snow Depth 0.00 in    
Sea Level Pressure  
Sea Level Pressure 29.82 in    
Wind  
Wind Speed 16 mph (SSW)    
Max Wind Speed 40 mph    
Max Gust Speed 61 mph    
Visibility 8 miles    
Events Rain , Thunderstorm    
T = Trace of Precipitation, MM = Missing Value Source: NWS Daily Summary

Daily Weather History Graph

Daily Weather History Graph

Search for Another Location

Airport or City:

Astronomy

Sep. 21, 2019 Rise Set
Actual Time 7:17 AM CDT 7:29 PM CDT
Civil Twilight 6:50 AM CDT 7:56 PM CDT
Nautical Twilight 6:18 AM CDT 8:27 PM CDT
Astronomical Twilight 5:46 AM CDT 8:59 PM CDT
Moon No Moon Rise 2:23 PM CDT
Length of Visible Light 13h 06m
Length of Day
12h 12m
Waning Gibbous, 54% of the Moon is Illuminated
Sep 21
Waning Gibbous
Sep 21
Last Quarter
Sep 28
New
Oct 5
First Quarter
Oct 13
Full

Hourly Weather History & Observations

Time (CDT) Temp. Heat Index Dew Point Humidity Pressure Visibility Wind Dir Wind Speed Gust Speed Precip Events Conditions
12:55 AM 73.9 °F - 70.0 °F 87% 29.81 in 10.0 mi SSE 11.5 mph - N/A   Overcast
1:35 AM 75.0 °F - 71.1 °F 87% 29.86 in 10.0 mi SSE 12.7 mph 20.7 mph N/A   Overcast
1:47 AM 75.0 °F - 71.1 °F 87% 29.86 in 10.0 mi South 12.7 mph - N/A   Overcast
1:55 AM 75.0 °F - 71.1 °F 87% 29.81 in 10.0 mi South 9.2 mph - N/A   Mostly Cloudy
2:12 AM 75.0 °F - 70.0 °F 84% 29.85 in 10.0 mi South 12.7 mph - N/A   Scattered Clouds
2:55 AM 75.0 °F - 70.0 °F 84% 29.80 in 10.0 mi South 12.7 mph 25.3 mph N/A   Clear
3:55 AM 73.9 °F - 70.0 °F 87% 29.78 in 10.0 mi South 16.1 mph - N/A   Clear
4:55 AM 73.0 °F - 69.1 °F 87% 29.81 in 10.0 mi South 12.7 mph 21.9 mph N/A   Clear
5:55 AM 73.0 °F - 69.1 °F 87% 29.80 in 10.0 mi South 15.0 mph 25.3 mph N/A   Clear
6:55 AM 72.0 °F - 68.0 °F 87% 29.82 in 10.0 mi South 16.1 mph 25.3 mph N/A   Clear
7:55 AM 72.0 °F - 68.0 °F 87% 29.81 in 10.0 mi South 20.7 mph 28.8 mph N/A   Clear
8:55 AM 75.0 °F - 68.0 °F 79% 29.82 in 10.0 mi South 25.3 mph 33.4 mph N/A   Clear
9:55 AM 77.0 °F - 68.0 °F 74% 29.83 in 10.0 mi SSW 21.9 mph 38.0 mph N/A   Clear
10:27 AM 78.1 °F - 68.0 °F 71% 29.86 in 10.0 mi SSW 23.0 mph 34.5 mph 0.00 in Rain Light Rain
10:41 AM 77.0 °F - 68.0 °F 74% 29.86 in 10.0 mi SSW 20.7 mph 33.4 mph 0.00 in   Mostly Cloudy
10:55 AM 80.1 °F 82.9 °F 69.1 °F 69% 29.81 in 10.0 mi SSW 23.0 mph 29.9 mph 0.00 in   Overcast
11:55 AM 81.0 °F 83.8 °F 68.0 °F 65% 29.81 in 10.0 mi SW 19.6 mph 27.6 mph N/A   Overcast
12:55 PM 84.0 °F 87.0 °F 68.0 °F 58% 29.81 in 10.0 mi SW 16.1 mph 29.9 mph 0.00 in   Overcast
1:55 PM 86.0 °F 89.4 °F 68.0 °F 55% 29.79 in 10.0 mi SSW 16.1 mph 24.2 mph N/A   Overcast
2:55 PM 91.0 °F 95.2 °F 68.0 °F 47% 29.77 in 10.0 mi SSW 18.4 mph 34.5 mph 0.00 in   Mostly Cloudy
3:55 PM 91.0 °F 94.3 °F 66.9 °F 45% 29.76 in 10.0 mi SSW 15.0 mph 21.9 mph N/A   Mostly Cloudy
4:55 PM 91.9 °F 94.5 °F 66.0 °F 42% 29.75 in 10.0 mi SSW 12.7 mph 23.0 mph N/A   Mostly Cloudy
5:55 PM 89.1 °F 92.9 °F 68.0 °F 50% 29.75 in 10.0 mi South 17.3 mph 25.3 mph N/A   Partly Cloudy
6:55 PM 84.9 °F 88.2 °F 68.0 °F 57% 29.73 in 10.0 mi South 16.1 mph 26.5 mph N/A   Clear
7:55 PM 82.9 °F 85.8 °F 68.0 °F 60% 29.73 in 10.0 mi South 16.1 mph - N/A   Partly Cloudy
8:30 PM 82.0 °F 85.9 °F 70.0 °F 67% 29.79 in 10.0 mi South 15.0 mph - N/A Thunderstorm Scattered Clouds
8:55 PM 77.0 °F - 66.9 °F 71% 29.80 in 10.0 mi West 23.0 mph 34.5 mph 0.00 in Rain , Thunderstorm Light Rain
9:02 PM 71.1 °F - 64.0 °F 78% 29.83 in 6.0 mi North - - 0.00 in Rain , Thunderstorm Light Rain
9:07 PM 69.1 °F - 64.0 °F 84% 29.84 in 2.0 mi WNW 28.8 mph 51.8 mph 0.00 in Rain , Thunderstorm Heavy Thunderstorms and Rain
9:11 PM 66.9 °F - 63.0 °F 87% 29.82 in 1.5 mi NW 25.3 mph 51.8 mph 0.09 in Rain , Thunderstorm Heavy Thunderstorms and Rain
9:17 PM 66.9 °F - 64.9 °F 93% 29.82 in 1.2 mi WNW 29.9 mph 52.9 mph 0.22 in Rain , Thunderstorm Heavy Thunderstorms and Rain
9:39 PM 68.0 °F - 66.0 °F 93% 29.90 in 0.8 mi WNW 18.4 mph 39.1 mph 0.87 in Rain , Thunderstorm Heavy Thunderstorms and Rain
9:49 PM 68.0 °F - 66.2 °F 94% 29.89 in 1.5 mi NW 8.1 mph 21.9 mph 1.10 in Rain , Thunderstorm Heavy Thunderstorms and Rain
9:50 PM 68.0 °F - 66.0 °F 93% 29.85 in 1.5 mi NW 8.1 mph 21.9 mph 1.11 in Rain , Thunderstorm Heavy Thunderstorms and Rain
9:54 PM 68.0 °F - 66.0 °F 93% 29.87 in 2.0 mi NNW 9.2 mph - 0.04 in Rain , Thunderstorm Heavy Thunderstorms and Rain
10:11 PM 68.0 °F - 66.0 °F 93% 29.90 in 2.0 mi Calm Calm - 0.18 in Rain , Thunderstorm Heavy Thunderstorms and Rain
10:22 PM 68.0 °F - 66.0 °F 93% 29.89 in 7.0 mi East 4.6 mph - 0.19 in Rain , Thunderstorm Light Thunderstorms and Rain
10:39 PM 68.0 °F - 66.0 °F 93% 29.88 in 9.0 mi East 3.5 mph - 0.21 in Rain Light Rain
10:55 PM 68.0 °F - 66.0 °F 93% 29.84 in 7.0 mi East 4.6 mph - 0.22 in Rain Rain
11:20 PM 68.0 °F - 66.0 °F 93% 29.88 in 8.0 mi ESE 9.2 mph - 0.08 in Rain , Thunderstorm Light Thunderstorms and Rain
11:35 PM 68.0 °F - 66.0 °F 93% 29.85 in 9.0 mi ESE 4.6 mph - 0.09 in Rain , Thunderstorm Light Rain
11:55 PM 68.0 °F - 66.0 °F 93% 29.83 in 10.0 mi SSE 5.8 mph - 0.10 in Rain Light Rain